This is the latest recevied weather packets stored in our database for station/object W7PLC. If no packets are shown the sender has not sent any weather packets the latest 10 day(s).
| Time | Temp. | Humidity | Pressure | Rain* | Wind** | Luminosity | Snow |
|---|---|---|---|---|---|---|---|
| 1777824435 | 20° C | 60% | 1012.4 hPa | 0 mm | - | 323 W/m² | - |
| 1777824131 | 20.56° C | 60% | 1012.3 hPa | 0 mm | - | 314 W/m² | - |
| 1777823827 | 20° C | 60% | 1012.5 hPa | 0 mm | - | 280 W/m² | - |
| 1777823525 | 20.56° C | 58% | 1012.5 hPa | 0 mm | - | 297 W/m² | - |
| 1777823221 | 20° C | 59% | 1012.5 hPa | 0 mm | - | 274 W/m² | - |
| 1777822920 | 20° C | 60% | 1012.6 hPa | 0 mm | - | 278 W/m² | - |
| 1777822617 | 19.44° C | 60% | 1012.3 hPa | 0 mm | - | 257 W/m² | - |
| 1777822315 | 19.44° C | 62% | 1012.4 hPa | 0 mm | - | 263 W/m² | - |
| 1777822012 | 18.89° C | 65% | 1012.4 hPa | 0 mm | - | 239 W/m² | - |
| 1777821710 | 18.33° C | 65% | 1012.5 hPa | 0 mm | - | 32 W/m² | - |
| 1777821407 | 17.22° C | 67% | 1012.3 hPa | 0 mm | - | 31 W/m² | - |
| 1777821104 | 17.22° C | 70% | 1012.5 hPa | 0 mm | - | 29 W/m² | - |
| 1777820801 | 16.67° C | 70% | 1012.5 hPa | 0 mm | - | 28 W/m² | - |
| 1777820497 | 16.11° C | 75% | 1012.4 hPa | 0 mm | - | 27 W/m² | - |
| 1777820194 | 15.56° C | 77% | 1012.3 hPa | 0 mm | - | 26 W/m² | - |
| 1777819891 | 15° C | 79% | 1012.4 hPa | 0 mm | - | 25 W/m² | - |
| 1777819589 | 14.44° C | 81% | 1012.2 hPa | 0 mm | - | 24 W/m² | - |
| 1777819286 | 13.89° C | 83% | 1012.2 hPa | 0 mm | - | 23 W/m² | - |
| 1777818983 | 13.33° C | 84% | 1012.3 hPa | 0 mm | - | 22 W/m² | - |
| 1777818680 | 12.78° C | 86% | 1012.2 hPa | 0 mm | - | 21 W/m² | - |
| 1777818377 | 12.78° C | 87% | 1012.1 hPa | 0 mm | - | 20 W/m² | - |
| 1777818073 | 12.22° C | 88% | 1012.2 hPa | 0 mm | - | 19 W/m² | - |
| 1777817770 | 11.67° C | 89% | 1012.2 hPa | 0 mm | - | 18 W/m² | - |
| 1777817468 | 11.67° C | 90% | 1012.4 hPa | 0 mm | - | 17 W/m² | - |
| 1777817163 | 11.11° C | 91% | 1012.4 hPa | 0 mm | - | 16 W/m² | - |
* Rain latest hour (hover to see other rain measurements)
** Current wind speed in m/s (hover to see current wind gust speed)